[[{"header":{"parameterUnit":"m.s-1","parameterCategory":2,"la1":30.2991,"la2":30.254,"lo1":-89.0895,"lo2":-89.0444,"dy":0.0017,"dx":0.0017,"nx":28,"ny":28,"refTime":"2025-09-16T03:00:00:Z","depth":"0","parameterNumber":2,"parameterNumberName":"U-component_of_CURRENTS"},"data":[0,0,0,0,0,0,0,0,0,0,0,0,0,0,0,0,0,0,0,0,0,0,0,0,0,0,0,0,0,0,0,0,0,0,0,0,0,0,0,0,0,0,0,0,0,0,0,0,0,0,0,0,0,0,0,0,0,0,-0.2866,-0.2866,0,-0.2831,-0.2831,-0.283,-0.269,-0.2687,-0.2684,-0.2681,-0.2617,-0.2618,-0.2619,0,0,0,0,0,0,0,0,0,0,0,0,0,-0.2747,-0.275,-0.2866,-0.2866,-0.2865,-0.2832,-0.2831,-0.283,-0.269,-0.2687,-0.2683,-0.2679,-0.2617,-0.2618,-0.2619,0,0,0,0,0,0,0,0,0,0,0,0,0,-0.2762,-0.2751,-0.2866,-0.2793,-0.2787,-0.2832,-0.2831,-0.283,-0.2691,-0.2687,-0.2682,-0.2678,-0.2616,-0.2618,-0.2619,-0.272,0,0,-0.2624,-0.2625,0,0,0,0,0,0,0,0,-0.2762,-0.2766,-0.2804,-0.2798,-0.2791,-0.2762,-0.2765,-0.2793,-0.2692,-0.2725,-0.2681,-0.2676,-0.2668,-0.2665,-0.2665,-0.2717,-0.2714,-0.2625,-0.2626,-0.2626,-0.2627,0,0,0,0,0,0,0,-0.2761,-0.2767,-0.2849,-0.2805,-0.2797,-0.2741,-0.2739,-0.277,-0.272,-0.2721,-0.2712,-0.2714,-0.2663,-0.2664,-0.2663,-0.2713,-0.2625,-0.2626,-0.2627,-0.2628,-0.271,-0.2712,0,0,0,0,0,0,-0.278,-0.2767,-0.2851,-0.2849,-0.2768,-0.2748,-0.2744,-0.2774,-0.272,-0.2708,-0.2718,-0.2707,-0.2664,-0.2661,-0.266,-0.2642,-0.2626,-0.2628,-0.2629,-0.2709,-0.2711,-0.2712,0,0,0,0,0,0,-0.2778,-0.2789,-0.2852,-0.2806,-0.2811,-0.2755,-0.2789,-0.2776,-0.2756,-0.2717,-0.2703,-0.2708,-0.266,-0.2658,-0.2668,-0.2643,-0.2629,-0.263,-0.2708,-0.271,-0.2711,-0.2691,0,0,0,0,0,0,-0.2775,-0.2789,-0.2815,-0.2809,-0.2814,-0.288,-0.2793,-0.2779,-0.2766,-0.2752,-0.2707,-0.2696,-0.2656,-0.2666,-0.2669,-0.2645,-0.2631,-0.2706,-0.2709,-0.2711,-0.2691,-0.2692,-0.2694,0,0,0,0,0,-0.2772,-0.2845,-0.2817,-0.2826,-0.2854,-0.2882,-0.288,-0.2821,-0.2771,-0.2782,-0.2736,-0.2696,-0.2681,-0.267,-0.2673,-0.2648,-0.2705,-0.2708,-0.2711,-0.269,-0.2692,-0.2694,0,0,0,0,0,0,-0.2817,-0.2838,-0.2807,-0.2883,-0.2876,-0.2859,-0.2877,-0.2836,-0.2813,-0.2794,-0.2734,-0.2724,-0.2716,-0.2714,-0.2702,-0.2683,-0.268,-0.2684,-0.2663,-0.2665,-0.2667,-0.254,-0.2633,0,0,0,0,0,-0.2842,-0.2892,-0.2888,-0.2945,-0.2949,-0.2911,-0.2914,-0.2878,-0.286,-0.2842,-0.2807,-0.2773,-0.2742,-0.2726,-0.2722,-0.2739,-0.269,-0.2722,-0.2724,-0.2725,-0.2628,-0.2579,-0.2565,-0.2721,-0.2721,-0.2721,0,0,-0.2878,-0.2893,-0.2922,-0.2955,-0.2945,-0.2907,-0.2901,-0.2922,-0.2858,-0.2849,-0.2784,-0.2795,-0.2754,-0.2739,-0.2735,-0.2724,-0.2673,-0.2728,-0.2728,-0.2628,-0.258,-0.2564,-0.2549,-0.2723,-0.2722,-0.2722,0,0,-0.2897,-0.2987,-0.2971,-0.2973,-0.2964,-0.2955,-0.2959,-0.2946,-0.2911,-0.2904,-0.284,-0.2807,-0.2832,-0.273,-0.2694,-0.2712,-0.2693,-0.2766,-0.2653,-0.2611,-0.2595,-0.258,-0.256,-0.2544,-0.2754,-0.2754,-0.2754,0,-0.2919,-0.2882,-0.2976,-0.2929,-0.2901,-0.296,-0.2884,-0.2893,-0.2872,-0.2833,-0.2882,-0.2805,-0.2782,-0.265,-0.2636,-0.2695,-0.2705,-0.2646,-0.2605,-0.2589,-0.2574,-0.2556,-0.2538,-0.2754,-0.2754,-0.2754,-0.2754,0,-0.2832,-0.2824,-0.2839,-0.2774,-0.2792,-0.2778,-0.2784,-0.2796,-0.2805,-0.2776,-0.2727,-0.272,-0.2643,-0.2663,-0.2642,-0.2521,-0.2578,-0.2623,-0.2583,-0.2556,-0.2542,-0.2523,-0.2753,-0.2753,-0.2753,-0.2753,0,0,-0.2756,-0.2765,-0.2741,-0.2699,-0.2697,-0.2713,-0.2665,-0.261,-0.2572,-0.2599,-0.251,-0.2448,-0.2475,-0.2429,-0.2432,-0.2372,-0.2299,-0.2449,-0.2447,-0.2395,-0.2244,-0.2169,-0.2142,-0.2378,-0.2373,-0.2369,-0.2298,0,-0.2597,-0.2507,-0.2526,-0.2437,-0.2397,-0.246,-0.2423,-0.2421,-0.2451,-0.2432,-0.2405,-0.2372,-0.2385,-0.2386,-0.2315,-0.232,-0.224,-0.2313,-0.2301,-0.2297,-0.2206,-0.2111,-0.2005,-0.1921,-0.2279,-0.2276,-0.2274,0,-0.238,-0.2372,-0.2262,-0.2281,-0.2267,-0.2239,-0.2227,-0.2205,-0.2211,-0.2242,-0.22,-0.2241,-0.2122,-0.2197,-0.2081,-0.216,-0.2146,-0.2152,-0.2152,-0.2037,-0.2181,-0.1997,-0.1872,-0.1877,-0.2244,-0.2246,-0.2249,0,-0.2215,-0.2158,-0.2085,-0.208,-0.2122,-0.2089,-0.2107,-0.2126,-0.213,-0.2121,-0.2153,-0.2067,-0.2065,-0.2014,-0.2013,-0.2069,-0.1933,-0.2029,-0.1921,-0.1921,-0.1783,-0.1775,-0.1601,-0.1879,-0.1879,-0.1879,-0.1879,0,-0.2007,-0.1946,-0.2025,-0.1997,-0.1953,-0.2009,-0.1973,-0.1994,-0.2024,-0.2011,-0.205,-0.2021,-0.2028,-0.1989,-0.197,-0.1867,-0.1892,-0.1813,-0.1852,-0.1786,-0.178,-0.174,-0.1794,-0.1876,-0.1877,-0.1877,-0.1878,0,-0.1833,-0.1858,-0.1818,-0.1867,-0.1882,-0.187,-0.1935,-0.1929,-0.1974,-0.1959,-0.196,-0.1984,-0.1916,-0.1908,-0.1838,-0.1809,-0.1688,-0.1681,-0.1606,-0.1631,-0.1523,-0.1582,-0.1394,-0.1355,-0.1534,-0.1531,-0.1528,0,-0.1736,-0.1697,-0.1754,-0.1757,-0.1777,-0.1792,-0.1808,-0.1882,-0.1893,-0.1912,-0.1894,-0.1854,-0.1748,-0.1637,-0.1591,-0.1499,-0.1547,-0.1371,-0.1383,-0.1401,-0.15,-0.157,-0.1558,-0.1246,-0.1242,-0.1238,-0.1235,0,-0.1582,-0.1614,-0.1615,-0.1637,-0.1654,-0.1674,-0.1706,-0.1699,-0.1762,-0.1717,-0.1614,-0.1517,-0.1467,-0.1305,-0.1257,-0.1215,-0.1333,-0.1287,-0.1309,-0.1194,-0.1248,-0.1272,-0.1458,-0.1201,-0.1205,-0.1207,-0.1209,-0.121,-0.1483,-0.1471,-0.1493,-0.15,-0.1521,-0.1498,-0.1429,-0.1446,-0.1366,-0.1223,-0.1254,-0.1003,-0.1012,-0.0899,-0.0919,-0.095,-0.1053,-0.0936,-0.0995,-0.1056,-0.1002,-0.1095,-0.0887,-0.0888,-0.089,-0.0891,-0.0892,0,-0.1352,-0.1355,-0.1356,-0.1343,-0.1297,-0.136,-0.1316,-0.1198,-0.0989,-0.0869,-0.0669,-0.0403,-0.0385,-0.0511,-0.0663,-0.0678,-0.0712,-0.0704,-0.0779,-0.0773,-0.0833,-0.0802,-0.0559,-0.0559,-0.0559,-0.0559,-0.0559,-0.0559,-0.1283,-0.1237,-0.1246,-0.1121,-0.1096,-0.095,-0.0863,-0.069,-0.0552,-0.0178,0.0054,0.0183,-0.0023,-0.0384,-0.0595,-0.0602,-0.0648,-0.0613,-0.0688,-0.076,-0.0788,-0.0815,-0.0794,-0.0554,-0.0554,-0.0571,-0.0571,-0.0571]},{"header":{"parameterUnit":"m.s-1","parameterCategory":2,"la1":30.2991,"la2":30.254,"lo1":-89.0895,"lo2":-89.0444,"dy":0.0017,"dx":0.0017,"nx":28,"ny":28,"refTime":"2025-09-16T03:00:00:Z","depth":"0","parameterNumber":3,"parameterNumberName":"V-component_of_CURRENTS"},"data":[0,0,0,0,0,0,0,0,0,0,0,0,0,0,0,0,0,0,0,0,0,0,0,0,0,0,0,0,0,0,0,0,0,0,0,0,0,0,0,0,0,0,0,0,0,0,0,0,0,0,0,0,0,0,0,0,0,0,-0.0394,-0.0393,0,-0.0341,-0.034,-0.0339,-0.03,-0.0299,-0.0299,-0.0298,-0.0199,-0.0197,-0.0194,0,0,0,0,0,0,0,0,0,0,0,0,0,-0.044,-0.044,-0.0394,-0.0393,-0.0393,-0.0341,-0.034,-0.0339,-0.03,-0.0299,-0.0299,-0.0298,-0.02,-0.0197,-0.0194,0,0,0,0,0,0,0,0,0,0,0,0,0,-0.0407,-0.0439,-0.0394,-0.0367,-0.0364,-0.0341,-0.034,-0.0339,-0.03,-0.0299,-0.0299,-0.0298,-0.0201,-0.0197,-0.0194,-0.0183,0,0,-0.0183,-0.0182,0,0,0,0,0,0,0,0,-0.0409,-0.0405,-0.0371,-0.0369,-0.0365,-0.0326,-0.032,-0.0284,-0.03,-0.0324,-0.0298,-0.0298,-0.0238,-0.0231,-0.0223,-0.0178,-0.0174,-0.0183,-0.0181,-0.0179,-0.0178,0,0,0,0,0,0,0,-0.0411,-0.0407,-0.0373,-0.0371,-0.0367,-0.035,-0.0345,-0.0313,-0.0283,-0.0322,-0.0319,-0.0313,-0.0236,-0.0226,-0.022,-0.0172,-0.0183,-0.018,-0.0178,-0.0176,-0.0052,-0.0051,0,0,0,0,0,0,-0.042,-0.0409,-0.0374,-0.0371,-0.0386,-0.0349,-0.0344,-0.0339,-0.0285,-0.0276,-0.0314,-0.0312,-0.0233,-0.0224,-0.0216,-0.0168,-0.0179,-0.0176,-0.0174,-0.0054,-0.0052,-0.0051,0,0,0,0,0,0,-0.0421,-0.0417,-0.0377,-0.0389,-0.0383,-0.0349,-0.0345,-0.0338,-0.0327,-0.0279,-0.027,-0.0309,-0.0232,-0.0221,-0.0196,-0.0165,-0.0174,-0.0171,-0.0055,-0.0053,-0.0051,-0.0091,0,0,0,0,0,0,-0.0422,-0.0418,-0.0422,-0.039,-0.0382,-0.0364,-0.0345,-0.0338,-0.0325,-0.0322,-0.0272,-0.0262,-0.0231,-0.0201,-0.0192,-0.016,-0.0168,-0.0056,-0.0054,-0.0052,-0.0091,-0.009,-0.009,0,0,0,0,0,-0.0424,-0.0433,-0.0423,-0.0419,-0.0388,-0.0364,-0.0358,-0.0333,-0.0325,-0.0321,-0.0295,-0.0264,-0.0179,-0.0199,-0.0188,-0.0154,-0.0058,-0.0055,-0.0052,-0.0091,-0.009,-0.009,0,0,0,0,0,0,-0.0465,-0.0429,-0.0417,-0.0417,-0.0392,-0.0357,-0.0355,-0.0337,-0.0314,-0.0312,-0.0269,-0.0257,-0.0213,-0.0183,-0.0206,-0.0108,-0.0104,-0.0099,-0.0137,-0.0136,-0.0136,-0.0162,-0.0166,0,0,0,0,0,-0.0475,-0.0469,-0.0431,-0.0436,-0.0421,-0.0389,-0.0379,-0.036,-0.0333,-0.0323,-0.0288,-0.0242,-0.0193,-0.017,-0.0126,-0.0091,-0.0065,-0.0053,-0.0052,-0.0053,-0.0064,-0.0016,-0.0013,-0.0042,-0.0042,-0.0042,0,0,-0.0497,-0.0475,-0.0475,-0.0444,-0.0423,-0.04,-0.0382,-0.0367,-0.0347,-0.0315,-0.0285,-0.0245,-0.0184,-0.0137,-0.0112,-0.011,-0.0026,-0.0049,-0.005,-0.0062,-0.0013,-0.001,-0.0008,-0.004,-0.004,-0.0041,0,0,-0.0523,-0.0513,-0.0504,-0.0482,-0.0447,-0.0422,-0.0418,-0.0379,-0.036,-0.033,-0.0291,-0.0249,-0.018,-0.0133,-0.0098,-0.007,-0.0027,-0.0037,-0.0057,-0.001,-0.0008,-0.0006,0.0041,0.0048,-0.0036,-0.0036,-0.0036,0,-0.0552,-0.0533,-0.0502,-0.0482,-0.0471,-0.0431,-0.042,-0.0388,-0.0349,-0.0338,-0.0321,-0.0226,-0.0174,-0.0115,-0.0097,-0.0069,-0.0041,-0.0069,-0.0012,-0.001,-0.0007,0.0041,0.0048,-0.0037,-0.0037,-0.0037,-0.0037,0,-0.055,-0.0543,-0.054,-0.0497,-0.048,-0.0471,-0.0421,-0.0404,-0.0376,-0.0343,-0.0292,-0.0232,-0.0177,-0.0136,-0.0107,-0.0051,-0.0035,-0.0022,-0.0023,-0.0007,0.0044,0.0052,-0.004,-0.0039,-0.0039,-0.0038,0,0,-0.0595,-0.055,-0.0547,-0.0541,-0.0492,-0.0481,-0.045,-0.0414,-0.0397,-0.0346,-0.0321,-0.0231,-0.0207,-0.0167,-0.0116,-0.0073,-0.0015,-0.0043,-0.004,-0.0014,0.0088,0.0126,0.0139,0.0003,0.0004,0.0005,0.0119,0,-0.0605,-0.0587,-0.0555,-0.0547,-0.0538,-0.0503,-0.0479,-0.0443,-0.0401,-0.0363,-0.0299,-0.0249,-0.0212,-0.0184,-0.0135,-0.0043,0.0004,-0.0047,0.0084,0.0088,0.0105,0.0149,0.02,0.0308,0.0127,0.0129,0.013,0,-0.0598,-0.0595,-0.0591,-0.0581,-0.0573,-0.056,-0.0533,-0.0505,-0.044,-0.0408,-0.0358,-0.0303,-0.0225,-0.0197,-0.0056,-0.0092,-0.0009,0.0056,0.0063,0.0112,0.0141,0.0264,0.0331,0.0444,0.0143,0.0142,0.0141,0,-0.0635,-0.0618,-0.0625,-0.0619,-0.0593,-0.0594,-0.0578,-0.0526,-0.0505,-0.0438,-0.0408,-0.0323,-0.0258,-0.0166,-0.0024,-0.0038,0.0132,0.0134,0.0242,0.0246,0.0323,0.0331,0.0498,0.0226,0.0226,0.0226,0.0225,0,-0.0652,-0.0657,-0.0647,-0.0652,-0.0671,-0.0635,-0.0636,-0.0604,-0.0551,-0.0497,-0.0437,-0.0365,-0.0247,-0.0132,-0.0027,0.0143,0.0136,0.0247,0.0281,0.0314,0.032,0.0447,0.0474,0.023,0.0229,0.0228,0.0227,0,-0.0681,-0.0669,-0.0685,-0.0684,-0.0686,-0.07,-0.0684,-0.0674,-0.0614,-0.0539,-0.0518,-0.0387,-0.0225,-0.0107,0.0076,0.016,0.0383,0.036,0.0389,0.0424,0.0609,0.0631,0.0802,0.0889,0.0491,0.0493,0.0494,0,-0.0687,-0.0699,-0.0723,-0.0742,-0.0744,-0.0758,-0.0761,-0.0716,-0.0678,-0.0524,-0.0476,-0.0322,-0.0138,0.0112,0.024,0.0415,0.0489,0.0558,0.0537,0.0639,0.069,0.0692,0.0753,0.0634,0.0637,0.0639,0.064,0,-0.0711,-0.0723,-0.0743,-0.079,-0.0807,-0.0804,-0.0785,-0.0751,-0.0644,-0.0536,-0.0309,-0.0146,0.0073,0.0305,0.0466,0.0564,0.0649,0.0603,0.0714,0.082,0.083,0.0925,0.0535,0.0658,0.0656,0.0655,0.0654,0.0653,-0.0728,-0.0759,-0.0789,-0.0826,-0.0842,-0.0791,-0.0726,-0.0655,-0.0519,-0.0271,-0.0154,0.0144,0.042,0.0664,0.0715,0.086,0.0814,0.0942,0.0963,0.0958,0.1036,0.0679,0.0831,0.083,0.0829,0.0829,0.0828,0,-0.0737,-0.077,-0.0818,-0.0817,-0.0792,-0.0795,-0.0694,-0.0566,-0.0332,-0.0132,0.0131,0.0574,0.0817,0.0964,0.1136,0.1226,0.1237,0.1282,0.1311,0.136,0.1066,0.1066,0.127,0.127,0.127,0.127,0.127,0.1269,-0.0742,-0.0785,-0.0809,-0.0754,-0.0725,-0.059,-0.0485,-0.0289,-0.011,0.0288,0.0556,0.0771,0.1079,0.1355,0.1519,0.154,0.1666,0.163,0.1694,0.1495,0.1465,0.1436,0.1445,0.1725,0.1726,0.2004,0.2007,0.2009]}],[{"header":{"parameterUnit":"m.s-1","parameterCategory":2,"la1":30.2991,"la2":30.254,"lo1":-89.0895,"lo2":-89.0444,"dy":0.0017,"dx":0.0017,"nx":28,"ny":28,"refTime":"2025-09-16T03:00:00:Z","depth":"2","parameterNumber":2,"parameterNumberName":"U-component_of_CURRENTS"},"data":[0,0,0,0,0,0,0,0,0,0,0,0,0,0,0,0,0,0,0,0,0,0,0,0,0,0,0,0,0,0,0,0,0,0,0,0,0,0,0,0,0,0,0,0,0,0,0,0,0,0,0,0,0,0,0,0,0,0,-0.2014,-0.2015,0,-0.2128,-0.213,-0.2131,-0.2121,-0.2119,-0.2118,-0.2116,-0.221,-0.2214,-0.2218,0,0,0,0,0,0,0,0,0,0,0,0,0,-0.1898,-0.1899,-0.2014,-0.2015,-0.2017,-0.2128,-0.213,-0.2131,-0.2121,-0.2119,-0.2117,-0.2115,-0.2208,-0.2213,-0.2218,0,0,0,0,0,0,0,0,0,0,0,0,0,-0.1973,-0.19,-0.2013,-0.2026,-0.2028,-0.2128,-0.213,-0.2131,-0.2122,-0.2119,-0.2117,-0.2114,-0.2207,-0.2213,-0.2219,-0.2307,0,0,-0.2237,-0.224,0,0,0,0,0,0,0,0,-0.1969,-0.1977,-0.2022,-0.2025,-0.2028,-0.2108,-0.2123,-0.2189,-0.2122,-0.2085,-0.2116,-0.2113,-0.2176,-0.2185,-0.2211,-0.2311,-0.2315,-0.2238,-0.2242,-0.2244,-0.2246,0,0,0,0,0,0,0,-0.1963,-0.1973,-0.2058,-0.2024,-0.2028,-0.2064,-0.2071,-0.2136,-0.2143,-0.2088,-0.2088,-0.2103,-0.2177,-0.2205,-0.2213,-0.2316,-0.2238,-0.2243,-0.2247,-0.2249,-0.2385,-0.2385,0,0,0,0,0,0,-0.1948,-0.1968,-0.2055,-0.2062,-0.1992,-0.2068,-0.2075,-0.2084,-0.2142,-0.2149,-0.2105,-0.2102,-0.2196,-0.2206,-0.2216,-0.2212,-0.2244,-0.225,-0.2253,-0.2385,-0.2385,-0.2385,0,0,0,0,0,0,-0.1945,-0.1955,-0.205,-0.2018,-0.2033,-0.2071,-0.2083,-0.2088,-0.2113,-0.2155,-0.2161,-0.2123,-0.2195,-0.2208,-0.2256,-0.222,-0.2253,-0.2258,-0.2385,-0.2385,-0.2385,-0.2276,0,0,0,0,0,0,-0.1941,-0.1953,-0.1978,-0.2017,-0.2034,-0.2081,-0.2085,-0.2092,-0.2126,-0.2123,-0.2174,-0.2179,-0.2194,-0.2246,-0.2262,-0.2229,-0.2263,-0.2385,-0.2385,-0.2385,-0.228,-0.2272,-0.2266,0,0,0,0,0,-0.1937,-0.196,-0.1979,-0.1991,-0.2059,-0.2081,-0.2092,-0.2112,-0.213,-0.2129,-0.2167,-0.2178,-0.2255,-0.2252,-0.227,-0.2238,-0.2385,-0.2385,-0.2385,-0.2283,-0.2274,-0.2266,0,0,0,0,0,0,-0.1938,-0.1964,-0.1983,-0.202,-0.204,-0.2078,-0.2104,-0.2123,-0.216,-0.2171,-0.2201,-0.221,-0.222,-0.227,-0.2266,-0.2278,-0.2314,-0.2317,-0.223,-0.2223,-0.2216,-0.2224,-0.2268,0,0,0,0,0,-0.1952,-0.1957,-0.1996,-0.2021,-0.2039,-0.2081,-0.2107,-0.2117,-0.215,-0.2164,-0.2191,-0.2228,-0.2241,-0.2264,-0.2286,-0.2332,-0.2344,-0.2318,-0.231,-0.2304,-0.2324,-0.23,-0.2291,-0.2384,-0.2384,-0.2384,0,0,-0.1957,-0.1975,-0.1981,-0.202,-0.205,-0.207,-0.2088,-0.212,-0.2126,-0.2174,-0.2198,-0.2208,-0.2246,-0.2251,-0.2263,-0.2289,-0.228,-0.2304,-0.2298,-0.2322,-0.2298,-0.2289,-0.2281,-0.2384,-0.2384,-0.2384,0,0,-0.1957,-0.1993,-0.1998,-0.2014,-0.2056,-0.2077,-0.2084,-0.2123,-0.2129,-0.2158,-0.217,-0.217,-0.2221,-0.2218,-0.2229,-0.222,-0.2232,-0.2222,-0.2209,-0.2182,-0.2174,-0.2167,-0.2141,-0.2132,-0.2231,-0.2231,-0.2231,0,-0.1966,-0.1982,-0.2004,-0.2018,-0.2036,-0.2075,-0.2089,-0.2109,-0.2149,-0.2156,-0.2145,-0.2177,-0.2196,-0.2198,-0.2175,-0.2199,-0.2195,-0.2226,-0.2169,-0.2163,-0.2157,-0.2133,-0.2125,-0.2226,-0.2226,-0.2227,-0.2227,0,-0.1968,-0.1988,-0.1994,-0.2014,-0.2035,-0.205,-0.2078,-0.2094,-0.2106,-0.2115,-0.2107,-0.2119,-0.2138,-0.2121,-0.2147,-0.212,-0.213,-0.2144,-0.2179,-0.214,-0.2118,-0.2112,-0.2218,-0.222,-0.2221,-0.2223,0,0,-0.1947,-0.1986,-0.1985,-0.1995,-0.2034,-0.2043,-0.2063,-0.2081,-0.2089,-0.2087,-0.2079,-0.2069,-0.2075,-0.2091,-0.2103,-0.2085,-0.2016,-0.2104,-0.2105,-0.2061,-0.1956,-0.1869,-0.1854,-0.2013,-0.2012,-0.2011,-0.1945,0,-0.1938,-0.195,-0.1977,-0.1986,-0.1997,-0.2034,-0.2042,-0.2063,-0.2069,-0.2068,-0.2062,-0.2056,-0.2064,-0.206,-0.204,-0.2034,-0.2001,-0.2034,-0.202,-0.202,-0.1931,-0.1843,-0.1714,-0.1636,-0.1939,-0.1938,-0.1937,0,-0.1917,-0.1931,-0.1938,-0.1965,-0.1977,-0.1985,-0.2007,-0.2022,-0.2038,-0.2042,-0.2039,-0.2043,-0.2031,-0.2028,-0.1988,-0.201,-0.1981,-0.1962,-0.1959,-0.192,-0.192,-0.1733,-0.1613,-0.1927,-0.1928,-0.1928,-0.1929,0,-0.1855,-0.1892,-0.1892,-0.19,-0.1945,-0.1953,-0.1977,-0.2004,-0.2018,-0.2026,-0.2027,-0.2018,-0.2007,-0.1976,-0.1947,-0.1966,-0.1886,-0.1906,-0.1794,-0.1788,-0.17,-0.1687,-0.1853,-0.1853,-0.1853,-0.1853,-0.1854,0,-0.1807,-0.1803,-0.1862,-0.1855,-0.1865,-0.1911,-0.1918,-0.1944,-0.1977,-0.1975,-0.2009,-0.1991,-0.1991,-0.1955,-0.1929,-0.1831,-0.1866,-0.1773,-0.1755,-0.1656,-0.1641,-0.1932,-0.1942,-0.1851,-0.1852,-0.1852,-0.1852,0,-0.1715,-0.1753,-0.1757,-0.1812,-0.1828,-0.1829,-0.1889,-0.189,-0.1939,-0.1936,-0.1939,-0.1963,-0.19,-0.1883,-0.1822,-0.179,-0.1719,-0.1674,-0.1557,-0.1525,-0.1648,-0.1654,-0.1542,-0.1538,-0.1535,-0.1532,-0.153,0,-0.1659,-0.1652,-0.171,-0.1713,-0.1732,-0.1758,-0.177,-0.1847,-0.1854,-0.1899,-0.1881,-0.1852,-0.1794,-0.1687,-0.1596,-0.1502,-0.1596,-0.1357,-0.1362,-0.1617,-0.1611,-0.1622,-0.1632,-0.12,-0.1195,-0.1191,-0.1188,0,-0.1556,-0.1581,-0.1591,-0.1608,-0.1622,-0.1643,-0.1671,-0.168,-0.1751,-0.1766,-0.1751,-0.1718,-0.1606,-0.1437,-0.1324,-0.1264,-0.1365,-0.1272,-0.1546,-0.1299,-0.1288,-0.1285,-0.1307,-0.1153,-0.1156,-0.1159,-0.1161,-0.1162,-0.1471,-0.1461,-0.148,-0.1483,-0.1501,-0.1494,-0.1467,-0.1514,-0.1518,-0.1507,-0.1568,-0.1478,-0.1433,-0.1166,-0.1068,-0.098,-0.1082,-0.106,-0.1074,-0.1093,-0.1065,-0.1049,-0.0863,-0.0865,-0.0866,-0.0868,-0.0869,0,-0.1358,-0.1357,-0.1352,-0.1344,-0.1304,-0.1365,-0.1367,-0.1323,-0.1284,-0.1307,-0.1293,-0.113,-0.0994,-0.0939,-0.0732,-0.0689,-0.071,-0.0675,-0.0715,-0.0748,-0.0779,-0.0739,-0.0449,-0.0448,-0.0447,-0.0446,0,0,-0.1297,-0.1251,-0.1251,-0.1143,-0.1132,-0.1047,-0.1022,-0.0998,-0.0988,-0.0934,-0.0899,-0.0974,-0.0935,-0.0724,-0.0645,-0.0511,-0.0636,-0.0479,-0.0812,-0.0894,-0.0924,-0.0987,-0.096,0,0,0,0,0]},{"header":{"parameterUnit":"m.s-1","parameterCategory":2,"la1":30.2991,"la2":30.254,"lo1":-89.0895,"lo2":-89.0444,"dy":0.0017,"dx":0.0017,"nx":28,"ny":28,"refTime":"2025-09-16T03:00:00:Z","depth":"2","parameterNumber":3,"parameterNumberName":"V-component_of_CURRENTS"},"data":[0,0,0,0,0,0,0,0,0,0,0,0,0,0,0,0,0,0,0,0,0,0,0,0,0,0,0,0,0,0,0,0,0,0,0,0,0,0,0,0,0,0,0,0,0,0,0,0,0,0,0,0,0,0,0,0,0,0,-0.0296,-0.0296,0,-0.0199,-0.0198,-0.0196,-0.013,-0.0129,-0.0129,-0.0129,0.0023,0.0027,0.0031,0,0,0,0,0,0,0,0,0,0,0,0,0,-0.0355,-0.0354,-0.0297,-0.0296,-0.0295,-0.0199,-0.0198,-0.0196,-0.013,-0.0129,-0.0129,-0.0129,0.0022,0.0027,0.0031,0,0,0,0,0,0,0,0,0,0,0,0,0,-0.0298,-0.0354,-0.0297,-0.0253,-0.0248,-0.02,-0.0198,-0.0196,-0.013,-0.0129,-0.0129,-0.0129,0.002,0.0026,0.0032,0.0062,0,0,0.005,0.0052,0,0,0,0,0,0,0,0,-0.0301,-0.0295,-0.026,-0.0256,-0.025,-0.0179,-0.0163,-0.0108,-0.013,-0.0171,-0.0129,-0.0129,-0.0042,-0.0031,-0.0009,0.0069,0.0076,0.005,0.0054,0.0056,0.0058,0,0,0,0,0,0,0,-0.0305,-0.0299,-0.0255,-0.0259,-0.0253,-0.0214,-0.0206,-0.0152,-0.0106,-0.0167,-0.0163,-0.0158,-0.0038,-0.0015,-0.0005,0.0078,0.005,0.0055,0.0059,0.0061,0.0187,0.0187,0,0,0,0,0,0,-0.0328,-0.0303,-0.0258,-0.0252,-0.0279,-0.0214,-0.0204,-0.02,-0.0107,-0.0094,-0.0158,-0.0155,-0.0025,-0.0012,0.0001,0.0029,0.0056,0.0062,0.0065,0.0187,0.0187,0.0187,0,0,0,0,0,0,-0.033,-0.0325,-0.0262,-0.0278,-0.0267,-0.0214,-0.0208,-0.0198,-0.0174,-0.0101,-0.0087,-0.0145,-0.0024,-0.0008,0.004,0.0035,0.0064,0.0069,0.0187,0.0187,0.0187,0.0093,0,0,0,0,0,0,-0.0332,-0.0326,-0.0327,-0.028,-0.0268,-0.0242,-0.0209,-0.0196,-0.0172,-0.0167,-0.0085,-0.0071,-0.0023,0.0031,0.0046,0.0044,0.0074,0.0187,0.0187,0.0187,0.0096,0.009,0.0084,0,0,0,0,0,-0.0334,-0.034,-0.0327,-0.0322,-0.0271,-0.0242,-0.0232,-0.019,-0.0172,-0.0166,-0.0115,-0.0073,0.004,0.0035,0.0053,0.0053,0.0188,0.0187,0.0187,0.0099,0.0091,0.0084,0,0,0,0,0,0,-0.0366,-0.0333,-0.0318,-0.0313,-0.0285,-0.0233,-0.0223,-0.0195,-0.0148,-0.014,-0.0073,-0.0055,-0.0021,0.0032,0.0025,0.0088,0.012,0.0123,0.0048,0.0041,0.0035,0.0035,0.0079,0,0,0,0,0,-0.0376,-0.0372,-0.0333,-0.0332,-0.0319,-0.0272,-0.0253,-0.0226,-0.0182,-0.0161,-0.0109,-0.0051,-0.0008,0.0028,0.0072,0.0116,0.0162,0.0127,0.0121,0.0115,0.0128,0.0178,0.0177,0.0186,0.0186,0.0186,0,0,-0.039,-0.0371,-0.0369,-0.0338,-0.0311,-0.0294,-0.0259,-0.0237,-0.022,-0.0151,-0.0114,-0.0076,-0.0005,0.0031,0.0053,0.0078,0.0134,0.0115,0.0109,0.0126,0.0177,0.0176,0.0176,0.0185,0.0186,0.0186,0,0,-0.0413,-0.0398,-0.0397,-0.0376,-0.0343,-0.0314,-0.0312,-0.0264,-0.024,-0.0206,-0.0159,-0.0121,-0.0048,0.0001,0.0035,0.0028,0.0088,0.0038,0.0024,0.007,0.007,0.007,0.0111,0.0116,0.0048,0.0048,0.0048,0,-0.043,-0.0422,-0.0394,-0.0385,-0.0371,-0.0328,-0.0321,-0.0291,-0.0235,-0.0215,-0.0207,-0.0112,-0.006,-0.0005,-0.0011,0.0014,0.0048,0.0041,0.0061,0.0063,0.0065,0.0107,0.0113,0.0044,0.0044,0.0045,0.0045,0,-0.0444,-0.0438,-0.0438,-0.0413,-0.0396,-0.0386,-0.0346,-0.0326,-0.03,-0.0264,-0.0223,-0.0161,-0.0098,-0.0085,-0.0047,-0.0006,0.0013,0.0032,0.0075,0.0058,0.0104,0.0112,0.0037,0.0039,0.004,0.0041,0,0,-0.0483,-0.0454,-0.0454,-0.0449,-0.0411,-0.0401,-0.0379,-0.0343,-0.0325,-0.0283,-0.0254,-0.0192,-0.0159,-0.0116,-0.0069,-0.0024,0.0007,0.0008,0.0013,0.004,0.0106,0.0127,0.0138,0.0023,0.0025,0.0026,0.0125,0,-0.0502,-0.0501,-0.0475,-0.0475,-0.0472,-0.0432,-0.0417,-0.0379,-0.0342,-0.0306,-0.0244,-0.0204,-0.0169,-0.0147,-0.0097,-0.0017,0.0028,-0.0021,0.0128,0.0133,0.0146,0.0149,0.0133,0.0221,0.0134,0.0136,0.0137,0,-0.0518,-0.0518,-0.0522,-0.0509,-0.0503,-0.0496,-0.0465,-0.0443,-0.0379,-0.0349,-0.0294,-0.0244,-0.0167,-0.0147,-0.0012,-0.0048,0.0025,0.0082,0.0088,0.0153,0.017,0.023,0.0241,0.0152,0.015,0.0149,0.0148,0,-0.0559,-0.055,-0.0558,-0.0553,-0.0529,-0.0526,-0.0512,-0.0459,-0.0439,-0.0373,-0.0348,-0.0257,-0.0203,-0.011,0.0013,0.0001,0.0157,0.0159,0.0247,0.0249,0.0292,0.0296,0.0253,0.0253,0.0253,0.0252,0.0252,0,-0.0587,-0.0594,-0.0582,-0.0588,-0.0605,-0.057,-0.0568,-0.0537,-0.0484,-0.0449,-0.0373,-0.0318,-0.0191,-0.0087,0.001,0.0161,0.0162,0.0255,0.0282,0.0257,0.0256,0.0246,0.0244,0.0256,0.0255,0.0254,0.0254,0,-0.0624,-0.0612,-0.0629,-0.0623,-0.0624,-0.0638,-0.0619,-0.061,-0.0551,-0.0502,-0.0484,-0.0354,-0.021,-0.0082,0.0088,0.017,0.0299,0.035,0.031,0.033,0.0358,0.035,0.0458,0.0459,0.0461,0.0462,0.0463,0,-0.0637,-0.065,-0.0668,-0.0687,-0.0687,-0.0699,-0.0702,-0.0655,-0.0633,-0.0513,-0.0486,-0.034,-0.0222,0.0027,0.0193,0.0367,0.0358,0.0447,0.0426,0.0366,0.0382,0.0371,0.0361,0.0441,0.0442,0.0443,0.0443,0,-0.0669,-0.0678,-0.0696,-0.0742,-0.076,-0.0777,-0.0771,-0.0765,-0.0686,-0.0628,-0.0512,-0.041,-0.0142,0.0061,0.0289,0.0388,0.0412,0.0465,0.0434,0.0384,0.0357,0.037,0.036,0.0449,0.0448,0.0448,0.0447,0.0447,-0.0693,-0.0723,-0.0751,-0.0791,-0.0819,-0.0843,-0.0851,-0.0821,-0.0784,-0.0659,-0.0555,-0.0358,-0.0154,0.0188,0.0339,0.0492,0.0493,0.0521,0.0517,0.0513,0.0486,0.0461,0.0568,0.0568,0.0568,0.0568,0.0568,0,-0.0716,-0.0748,-0.0795,-0.0843,-0.0882,-0.0881,-0.088,-0.0856,-0.0809,-0.0653,-0.0533,-0.0294,-0.0051,0.0177,0.0429,0.0555,0.0536,0.0567,0.0515,0.051,0.0505,0.0475,0.0556,0.0556,0.0556,0.0556,0,0,-0.0728,-0.0776,-0.0802,-0.0875,-0.0912,-0.0937,-0.0934,-0.0882,-0.0767,-0.0617,-0.0449,-0.0271,0.0005,0.0158,0.0319,0.0458,0.0447,0.0466,0.0466,0.0381,0.0375,0.0474,0.0422,0,0,0,0,0]}],[{"header":{"parameterUnit":"m.s-1","parameterCategory":2,"la1":30.2991,"la2":30.254,"lo1":-89.0895,"lo2":-89.0444,"dy":0.0017,"dx":0.0017,"nx":28,"ny":28,"refTime":"2025-09-16T03:00:00:Z","depth":"4","parameterNumber":2,"parameterNumberName":"U-component_of_CURRENTS"},"data":[0,0,0,0,0,0,0,0,0,0,0,0,0,0,0,0,0,0,0,0,0,0,0,0,0,0,0,0,0,0,0,0,0,0,0,0,0,0,0,0,0,0,0,0,0,0,0,0,0,0,0,0,0,0,0,0,0,0,-0.1228,-0.1229,0,-0.1303,-0.1304,-0.1305,-0.1336,-0.1335,-0.1335,-0.1335,-0.1402,-0.1404,-0.1406,0,0,0,0,0,0,0,0,0,0,0,0,0,-0.1146,-0.1147,-0.1228,-0.1229,-0.123,-0.1303,-0.1304,-0.1305,-0.1336,-0.1335,-0.1335,-0.1335,-0.1401,-0.1403,-0.1406,0,0,0,0,0,0,0,0,0,0,0,0,0,-0.1197,-0.1147,-0.1228,-0.1254,-0.1257,-0.1303,-0.1304,-0.1305,-0.1336,-0.1335,-0.1335,-0.1335,-0.14,-0.1403,-0.1406,-0.1429,0,0,-0.1415,-0.1416,0,0,0,0,0,0,0,0,-0.1194,-0.12,-0.1249,-0.1252,-0.1256,-0.131,-0.1299,-0.1346,-0.1336,-0.1306,-0.1335,-0.1335,-0.137,-0.1376,-0.1391,-0.1432,-0.1435,-0.1415,-0.1417,-0.1418,-0.1419,0,0,0,0,0,0,0,-0.1191,-0.1197,-0.1258,-0.125,-0.1254,-0.1274,-0.128,-0.1309,-0.1338,-0.1308,-0.1311,-0.1319,-0.1372,-0.1388,-0.1392,-0.1436,-0.1415,-0.1418,-0.1419,-0.1421,-0.151,-0.151,0,0,0,0,0,0,-0.118,-0.1194,-0.1255,-0.126,-0.1224,-0.1275,-0.1283,-0.1293,-0.1338,-0.1345,-0.1319,-0.132,-0.1383,-0.1389,-0.1395,-0.1452,-0.1418,-0.1421,-0.1423,-0.1509,-0.151,-0.151,0,0,0,0,0,0,-0.1178,-0.1185,-0.1252,-0.1228,-0.1238,-0.1277,-0.1288,-0.1294,-0.1329,-0.1347,-0.1353,-0.1349,-0.1383,-0.1391,-0.1431,-0.1454,-0.1422,-0.1425,-0.1508,-0.1509,-0.151,-0.155,0,0,0,0,0,0,-0.1175,-0.1183,-0.1201,-0.1228,-0.1239,-0.1288,-0.1288,-0.1296,-0.1333,-0.1336,-0.1375,-0.1379,-0.1383,-0.1426,-0.1434,-0.1457,-0.1427,-0.1507,-0.1509,-0.151,-0.1548,-0.1552,-0.1555,0,0,0,0,0,-0.1172,-0.12,-0.1202,-0.121,-0.1258,-0.1289,-0.1297,-0.1323,-0.1335,-0.1354,-0.1377,-0.1379,-0.1438,-0.143,-0.1438,-0.1463,-0.1507,-0.1508,-0.151,-0.1546,-0.1551,-0.1555,0,0,0,0,0,0,-0.1178,-0.1206,-0.1209,-0.1245,-0.1266,-0.1294,-0.1325,-0.1338,-0.1374,-0.1384,-0.1396,-0.1403,-0.1439,-0.1448,-0.1438,-0.1489,-0.147,-0.1473,-0.1495,-0.15,-0.1504,-0.1516,-0.1429,0,0,0,0,0,-0.1184,-0.1212,-0.1232,-0.1262,-0.1276,-0.1303,-0.1326,-0.134,-0.1369,-0.1386,-0.1413,-0.1436,-0.145,-0.1472,-0.1485,-0.1529,-0.1514,-0.1546,-0.155,-0.1553,-0.1568,-0.1561,-0.1566,-0.1515,-0.1515,-0.1515,0,0,-0.1195,-0.1215,-0.1231,-0.1265,-0.1288,-0.1321,-0.1317,-0.1357,-0.1389,-0.1388,-0.1451,-0.1453,-0.1461,-0.1496,-0.1515,-0.1512,-0.1556,-0.1555,-0.1558,-0.1571,-0.1563,-0.1568,-0.1572,-0.1516,-0.1516,-0.1516,0,0,-0.1225,-0.1248,-0.1277,-0.13,-0.1335,-0.1353,-0.1367,-0.1406,-0.1429,-0.1474,-0.1474,-0.1498,-0.1535,-0.1546,-0.1553,-0.1592,-0.157,-0.159,-0.1636,-0.1629,-0.1633,-0.1636,-0.1607,-0.1608,-0.1602,-0.1602,-0.1602,0,-0.1237,-0.1274,-0.129,-0.1324,-0.1351,-0.1369,-0.1406,-0.1434,-0.1482,-0.15,-0.1499,-0.1544,-0.1559,-0.1591,-0.1604,-0.1604,-0.1583,-0.1617,-0.1634,-0.1637,-0.164,-0.1609,-0.161,-0.1604,-0.1604,-0.1603,-0.1603,0,-0.1281,-0.1317,-0.1341,-0.1386,-0.1416,-0.1454,-0.1484,-0.152,-0.1546,-0.1564,-0.16,-0.1612,-0.1637,-0.1641,-0.1642,-0.1672,-0.1641,-0.1631,-0.1622,-0.1648,-0.1613,-0.1613,-0.1607,-0.1606,-0.1606,-0.1605,0,0,-0.1292,-0.1358,-0.137,-0.1391,-0.1454,-0.1475,-0.1535,-0.1578,-0.1605,-0.1643,-0.1674,-0.1707,-0.1706,-0.1713,-0.171,-0.1718,-0.1721,-0.1693,-0.1692,-0.1665,-0.1684,-0.1558,-0.1545,-0.1707,-0.1708,-0.1708,-0.1644,0,-0.1322,-0.1382,-0.1418,-0.148,-0.1508,-0.1547,-0.1594,-0.1634,-0.1661,-0.1694,-0.1707,-0.173,-0.1734,-0.1738,-0.1751,-0.1724,-0.1725,-0.1739,-0.1663,-0.1661,-0.1547,-0.1542,-0.171,-0.1644,-0.1644,-0.1644,-0.1644,0,-0.1349,-0.1386,-0.1446,-0.1506,-0.1524,-0.1569,-0.1628,-0.1671,-0.1717,-0.1734,-0.1763,-0.1764,-0.1793,-0.178,-0.1767,-0.177,-0.1741,-0.1717,-0.1713,-0.1586,-0.1535,-0.1617,-0.1642,-0.1642,-0.1643,-0.1643,-0.1643,0,-0.1319,-0.1403,-0.1448,-0.1473,-0.1547,-0.1584,-0.1628,-0.1682,-0.1709,-0.1757,-0.1767,-0.1795,-0.1795,-0.1781,-0.1746,-0.1755,-0.1703,-0.1703,-0.1561,-0.1551,-0.1668,-0.1665,-0.1692,-0.1692,-0.1692,-0.1692,-0.1692,0,-0.1315,-0.1352,-0.1438,-0.1457,-0.1509,-0.157,-0.1619,-0.1662,-0.1717,-0.1724,-0.1782,-0.1772,-0.1796,-0.1768,-0.1743,-0.1636,-0.1698,-0.1564,-0.1527,-0.1682,-0.1682,-0.1666,-0.1664,-0.169,-0.169,-0.1691,-0.1691,0,-0.1254,-0.1318,-0.1366,-0.1457,-0.1488,-0.152,-0.1606,-0.1623,-0.1694,-0.1703,-0.1716,-0.1754,-0.17,-0.1696,-0.1651,-0.1602,-0.1532,-0.1481,-0.1631,-0.1605,-0.1386,-0.1387,-0.1314,-0.1309,-0.1305,-0.1302,-0.1299,0,-0.1219,-0.124,-0.1344,-0.1367,-0.1409,-0.1472,-0.1499,-0.1593,-0.1602,-0.166,-0.1638,-0.1631,-0.1628,-0.1465,-0.1485,-0.1407,-0.1395,-0.1362,-0.14,-0.1376,-0.1349,-0.1356,-0.1363,-0.1292,-0.1291,-0.129,-0.1289,0,-0.1143,-0.1195,-0.123,-0.128,-0.1321,-0.1358,-0.1405,-0.1406,-0.1482,-0.1569,-0.1506,-0.1471,-0.1403,-0.136,-0.1303,-0.1259,-0.1389,-0.1318,-0.1328,-0.1363,-0.1349,-0.1327,-0.1338,-0.1274,-0.1276,-0.1278,-0.1278,0,-0.1082,-0.109,-0.1141,-0.1168,-0.1215,-0.1207,-0.126,-0.1259,-0.1289,-0.1365,-0.1332,-0.133,-0.137,-0.1279,-0.1229,-0.1169,-0.1157,-0.114,-0.1158,-0.1175,-0.1159,-0.1123,-0.094,0,0,0,0,0,-0.1013,-0.1003,-0.102,-0.1037,-0.1075,-0.1098,-0.1169,-0.1222,-0.1305,-0.1218,-0.1275,-0.1204,-0.113,-0.1143,-0.1045,-0.1155,-0.1158,-0.1039,-0.1148,-0.1193,-0.121,-0.1205,0,0,0,0,0,0,-0.0964,-0.0979,-0.0977,-0.091,-0.0894,-0.0917,-0.0957,-0.102,-0.0989,-0.1082,-0.1043,-0.1123,-0.1063,-0.1142,-0.1011,-0.1012,-0.1056,-0.1055,-0.1052,-0.1184,-0.1199,-0.1213,-0.1213,0,0,0,0,0]},{"header":{"parameterUnit":"m.s-1","parameterCategory":2,"la1":30.2991,"la2":30.254,"lo1":-89.0895,"lo2":-89.0444,"dy":0.0017,"dx":0.0017,"nx":28,"ny":28,"refTime":"2025-09-16T03:00:00:Z","depth":"4","parameterNumber":3,"parameterNumberName":"V-component_of_CURRENTS"},"data":[0,0,0,0,0,0,0,0,0,0,0,0,0,0,0,0,0,0,0,0,0,0,0,0,0,0,0,0,0,0,0,0,0,0,0,0,0,0,0,0,0,0,0,0,0,0,0,0,0,0,0,0,0,0,0,0,0,0,-0.0253,-0.0253,0,-0.0217,-0.0217,-0.0216,-0.0183,-0.0182,-0.0182,-0.0182,-0.0121,-0.012,-0.0119,0,0,0,0,0,0,0,0,0,0,0,0,0,-0.0271,-0.0271,-0.0253,-0.0253,-0.0252,-0.0218,-0.0217,-0.0216,-0.0183,-0.0182,-0.0182,-0.0182,-0.0122,-0.012,-0.0119,0,0,0,0,0,0,0,0,0,0,0,0,0,-0.0251,-0.0271,-0.0253,-0.0232,-0.023,-0.0218,-0.0217,-0.0216,-0.0183,-0.0182,-0.0182,-0.0181,-0.0122,-0.012,-0.0118,-0.0117,0,0,-0.0112,-0.0112,0,0,0,0,0,0,0,0,-0.0252,-0.025,-0.0236,-0.0234,-0.0231,-0.0205,-0.0201,-0.0182,-0.0183,-0.02,-0.0182,-0.0181,-0.0148,-0.0144,-0.0137,-0.0114,-0.0111,-0.0112,-0.0111,-0.011,-0.011,0,0,0,0,0,0,0,-0.0254,-0.0252,-0.0238,-0.0235,-0.0233,-0.0217,-0.0214,-0.0197,-0.0176,-0.0198,-0.0196,-0.0194,-0.0146,-0.0139,-0.0136,-0.011,-0.0112,-0.0111,-0.0109,-0.0109,-0.0083,-0.0083,0,0,0,0,0,0,-0.0262,-0.0253,-0.0239,-0.0237,-0.0242,-0.0217,-0.0214,-0.0213,-0.0177,-0.0171,-0.0194,-0.0192,-0.0143,-0.0138,-0.0133,-0.0117,-0.011,-0.0108,-0.0107,-0.0082,-0.0083,-0.0083,0,0,0,0,0,0,-0.0262,-0.0261,-0.0241,-0.0245,-0.0241,-0.0218,-0.0217,-0.0213,-0.0206,-0.0174,-0.0167,-0.0192,-0.0142,-0.0136,-0.0125,-0.0115,-0.0108,-0.0106,-0.0082,-0.0083,-0.0083,-0.0092,0,0,0,0,0,0,-0.0263,-0.0261,-0.0267,-0.0246,-0.0241,-0.0237,-0.0218,-0.0212,-0.0206,-0.0203,-0.017,-0.0164,-0.0141,-0.0128,-0.0123,-0.0112,-0.0104,-0.0081,-0.0082,-0.0083,-0.0091,-0.0093,-0.0094,0,0,0,0,0,-0.0264,-0.0271,-0.0267,-0.0266,-0.0249,-0.0237,-0.0234,-0.0214,-0.0206,-0.0206,-0.0188,-0.0165,-0.013,-0.0127,-0.0121,-0.0109,-0.0081,-0.0082,-0.0083,-0.009,-0.0092,-0.0094,0,0,0,0,0,0,-0.028,-0.0268,-0.0263,-0.0266,-0.0255,-0.0232,-0.0232,-0.022,-0.0205,-0.0204,-0.0173,-0.0166,-0.0152,-0.0137,-0.0135,-0.0107,-0.0101,-0.0101,-0.0109,-0.0111,-0.0112,-0.0099,-0.0103,0,0,0,0,0,-0.0288,-0.0292,-0.0275,-0.028,-0.0275,-0.0256,-0.025,-0.0238,-0.0222,-0.0215,-0.0192,-0.0171,-0.0153,-0.0138,-0.0124,-0.0108,-0.0079,-0.0098,-0.0099,-0.0101,-0.0088,-0.0039,-0.0034,-0.0087,-0.0087,-0.0087,0,0,-0.0298,-0.0291,-0.0294,-0.0284,-0.0274,-0.0267,-0.0251,-0.0246,-0.0236,-0.0211,-0.0195,-0.018,-0.0154,-0.0136,-0.0128,-0.0119,-0.0075,-0.0102,-0.0103,-0.0089,-0.0039,-0.0033,-0.0028,-0.0088,-0.0088,-0.0087,0,0,-0.0312,-0.0312,-0.0316,-0.0308,-0.0296,-0.0282,-0.0283,-0.0263,-0.025,-0.0241,-0.0217,-0.0191,-0.0175,-0.0137,-0.012,-0.0123,-0.0091,-0.013,-0.0116,-0.0069,-0.0063,-0.0058,-0.0028,-0.002,-0.0123,-0.0123,-0.0123,0,-0.0325,-0.0325,-0.0316,-0.0313,-0.0307,-0.029,-0.0288,-0.0273,-0.0252,-0.0237,-0.0241,-0.0193,-0.0167,-0.0122,-0.0122,-0.0121,-0.0103,-0.0108,-0.0068,-0.0063,-0.0057,-0.0027,-0.0018,-0.0124,-0.0124,-0.0124,-0.0124,0,-0.0335,-0.0336,-0.0338,-0.0328,-0.0321,-0.032,-0.0297,-0.0288,-0.0277,-0.0255,-0.0224,-0.0191,-0.0156,-0.0146,-0.0133,-0.0081,-0.0085,-0.0081,-0.0058,-0.0051,-0.0022,-0.0012,-0.0125,-0.0124,-0.0124,-0.0124,0,0,-0.036,-0.0348,-0.035,-0.035,-0.033,-0.0328,-0.031,-0.0285,-0.0271,-0.0245,-0.0219,-0.0172,-0.0151,-0.013,-0.0103,-0.0056,-0.0002,-0.0054,-0.0051,-0.0015,0.0087,0.0064,0.0072,0.0005,0.0007,0.0009,0.0088,0,-0.0371,-0.0375,-0.0361,-0.0364,-0.0364,-0.0341,-0.0327,-0.0301,-0.0278,-0.025,-0.0196,-0.0171,-0.0146,-0.0134,-0.0078,-0.0028,0.0025,-0.0024,0.0068,0.0071,0.0058,0.0084,0.0015,0.0095,0.0097,0.0099,0.01,0,-0.0383,-0.0386,-0.0392,-0.0384,-0.0382,-0.0381,-0.0358,-0.0342,-0.0289,-0.027,-0.0218,-0.0186,-0.011,-0.0101,0.0021,-0.0018,0.0039,0.0083,0.0087,0.008,0.0067,0.009,0.0118,0.0117,0.0115,0.0114,0.0113,0,-0.0409,-0.0407,-0.0417,-0.0414,-0.04,-0.04,-0.0393,-0.0351,-0.0338,-0.0282,-0.0267,-0.0178,-0.014,-0.0051,0.004,0.0029,0.0165,0.0162,0.0202,0.02,0.0201,0.0195,0.0262,0.0261,0.0261,0.0261,0.0261,0,-0.0423,-0.0433,-0.0436,-0.0443,-0.0461,-0.0436,-0.044,-0.0415,-0.0375,-0.0355,-0.0283,-0.0245,-0.0126,-0.0041,0.0043,0.0151,0.0174,0.0217,0.0228,0.0191,0.0183,0.0208,0.02,0.0264,0.0263,0.0263,0.0262,0,-0.0447,-0.0445,-0.0465,-0.0469,-0.0476,-0.0492,-0.0489,-0.0485,-0.044,-0.0411,-0.0397,-0.0289,-0.0175,-0.0058,0.009,0.0148,0.0252,0.0287,0.0234,0.0237,0.0254,0.0245,0.034,0.034,0.034,0.034,0.034,0,-0.0454,-0.0468,-0.0501,-0.0525,-0.0533,-0.0552,-0.0564,-0.0529,-0.0517,-0.0435,-0.042,-0.0307,-0.0227,-0.0035,0.0091,0.0251,0.0272,0.0317,0.0301,0.0266,0.0267,0.0258,0.0249,0.034,0.034,0.034,0.034,0,-0.0475,-0.0494,-0.0516,-0.057,-0.06,-0.0624,-0.0632,-0.0626,-0.0573,-0.0534,-0.0438,-0.0327,-0.0194,-0.0041,0.0085,0.0201,0.0281,0.0318,0.0319,0.0304,0.0267,0.0266,0.0257,0.034,0.034,0.034,0.034,0,-0.0496,-0.0525,-0.0563,-0.0606,-0.0652,-0.0679,-0.0679,-0.065,-0.0626,-0.0527,-0.0494,-0.0339,-0.0239,-0.0065,0.0053,0.0161,0.0186,0.0206,0.0213,0.0215,0.0151,0.0085,0.0125,0,0,0,0,0,-0.051,-0.0544,-0.0593,-0.0642,-0.0689,-0.0709,-0.0713,-0.0698,-0.0645,-0.059,-0.0539,-0.0414,-0.0217,-0.0118,-0.0014,0.0047,0.0197,0.017,0.022,0.0341,0.0341,0.0286,0,0,0,0,0,0,-0.0521,-0.0571,-0.0594,-0.0659,-0.0697,-0.074,-0.0743,-0.0709,-0.0665,-0.0598,-0.0491,-0.0409,-0.0215,-0.0282,-0.0019,0.0018,0.0059,0.0274,0.0276,0.0341,0.0341,0.0341,0.0284,0,0,0,0,0]}]]